FW7213 Weather Reports


Display with metric or nautical units.
time (UTC)temp
F
wind
direction
speed
MPH
gust
MPH
rain 1hr
in
rain 24hr
in
rain mn
in
humidity
%
barometer
mb
20260904062559 76 148 1.0 1.0 0.00 0.00 0.00 89 1015.8
20260904062056 76 148 0.0 1.0 0.00 0.00 0.00 89 1015.9
20260904061600 76 0 0.0 0.0 0.00 0.00 0.00 90 1015.8
20260904061058 76 153 0.0 0.0 0.00 0.00 0.00 90 1015.7
20260904060558 76 156 0.0 0.0 0.00 0.00 0.00 90 1015.7
20260904060110 76 0 0.0 0.0 0.00 0.00 0.00 90 1015.7
20260904055554 77 156 0.0 0.0 0.00 0.00 0.00 89 1015.7
20260904055101 77 0 0.0 0.0 0.00 0.00 0.00 88 1015.8
20260904054604 77 0 0.0 0.0 0.00 0.00 0.00 88 1015.9
20260904054101 77 0 0.0 0.0 0.00 0.00 0.00 88 1015.9
20260904053557 77 0 0.0 0.0 0.00 0.00 0.00 88 1015.8
20260904053105 77 0 0.0 0.0 0.00 0.00 0.00 88 1015.8
20260904052558 77 0 0.0 1.0 0.00 0.00 0.00 88 1016.0
20260904052058 77 0 0.0 1.0 0.00 0.00 0.00 88 1015.9
20260904051600 78 0 0.0 1.0 0.00 0.00 0.00 87 1015.8
20260904051055 78 0 0.0 0.0 0.00 0.00 0.00 87 1015.9
20260904050558 78 0 0.0 0.0 0.00 0.00 0.00 86 1015.9
20260904050148 78 0 0.0 0.0 0.00 0.00 0.00 86 1015.8
20260904045555 79 0 0.0 0.0 0.00 0.00 0.00 86 1015.8
20260904045057 79 0 0.0 0.0 0.00 0.00 0.00 86 1015.7
20260904044601 79 0 0.0 0.0 0.00 0.00 0.00 84 1015.8
20260904044058 79 0 0.0 0.0 0.00 0.00 0.00 83 1015.9
20260904043558 79 0 0.0 0.0 0.00 0.00 0.00 83 1015.8
20260904043102 80 0 0.0 0.0 0.00 0.00 0.00 82 1015.9
20260904042556 80 0 0.0 0.0 0.00 0.00 0.00 82 1015.9
20260904042058 79 0 0.0 0.0 0.00 0.00 0.00 83 1016.0
20260904041612 79 0 0.0 0.0 0.00 0.00 0.00 83 1016.0
20260904041055 78 0 0.0 0.0 0.00 0.00 0.00 83 1016.0
20260904040555 78 0 0.0 0.0 0.00 0.00 0.00 84 1016.1
20260904040105 78 0 0.0 0.0 0.00 0.00 0.00 83 1016.1
20260904035558 78 0 0.0 0.0 0.00 0.00 0.00 84 1016.0
20260904035055 78 0 0.0 0.0 0.00 0.00 0.00 84 1016.1
20260904034611 78 0 0.0 0.0 0.00 0.00 0.00 85 1016.0
20260904034058 78 0 0.0 0.0 0.00 0.00 0.00 84 1016.0
20260904033601 78 0 0.0 0.0 0.00 0.00 0.00 84 1016.1
20260904033108 78 0 0.0 0.0 0.00 0.00 0.00 85 1016.1
20260904032555 78 0 0.0 0.0 0.00 0.00 0.00 85 1016.1
20260904032056 78 0 0.0 0.0 0.00 0.00 0.00 84 1016.1
20260904031600 78 0 0.0 0.0 0.00 0.00 0.00 83 1016.0
20260904031058 78 0 0.0 0.0 0.00 0.00 0.00 84 1016.1
20260904030555 78 0 0.0 0.0 0.00 0.00 0.00 84 1016.1
20260904030103 78 0 0.0 0.0 0.00 0.00 0.00 84 1016.0
20260904025559 79 0 0.0 0.0 0.00 0.00 0.00 84 1016.0
20260904025059 79 0 0.0 0.0 0.00 0.00 0.00 84 1016.1
20260904024606 79 0 0.0 0.0 0.00 0.00 0.00 84 1016.1
20260904024058 79 0 0.0 0.0 0.00 0.00 0.00 81 1016.0
20260904023558 79 0 0.0 0.0 0.00 0.00 0.00 82 1016.0
20260904023104 79 0 0.0 0.0 0.00 0.00 0.00 83 1016.0
20260904022555 79 0 0.0 0.0 0.00 0.00 0.00 83 1016.0
20260904022058 79 0 0.0 0.0 0.00 0.00 0.00 83 1016.0
20260904021559 79 0 0.0 0.0 0.00 0.00 0.00 83 1015.9
20260904021057 80 0 0.0 0.0 0.00 0.00 0.00 82 1015.8
20260904020558 80 0 0.0 0.0 0.00 0.00 0.00 82 1015.7
20260904020101 80 0 0.0 0.0 0.00 0.00 0.00 81 1015.6
20260904015557 80 0 0.0 0.0 0.00 0.00 0.00 81 1015.6
20260904015058 80 0 0.0 0.0 0.00 0.00 0.00 81 1015.4
20260904014634 80 0 0.0 0.0 0.00 0.00 0.00 81 1015.3
20260904014058 81 0 0.0 0.0 0.00 0.00 0.00 81 1015.4
20260904013559 81 0 0.0 1.0 0.00 0.00 0.00 80 1015.4
20260904013101 81 0 0.0 1.0 0.00 0.00 0.00 83 1015.4
20260904012558 81 0 0.0 1.0 0.00 0.00 0.00 80 1015.3
20260904012058 82 0 0.0 0.0 0.00 0.00 0.00 80 1015.3
20260904011609 82 0 0.0 0.0 0.00 0.00 0.00 79 1015.3
20260904011058 82 0 0.0 0.0 0.00 0.00 0.00 79 1015.3
20260904010558 82 0 0.0 0.0 0.00 0.00 0.00 77 1015.2
20260904010107 83 0 0.0 0.0 0.00 0.00 0.00 76 1015.1
20260904005600 83 0 0.0 0.0 0.00 0.00 0.00 76 1015.0
20260904005057 83 0 0.0 0.0 0.00 0.00 0.00 75 1015.0
20260904004616 83 0 0.0 0.0 0.00 0.00 0.00 72 1014.9
20260904004054 84 0 0.0 0.0 0.00 0.00 0.00 71 1014.9
20260904003558 84 0 0.0 0.0 0.00 0.00 0.00 71 1015.0
20260904003111 85 0 0.0 0.0 0.00 0.00 0.00 70 1014.8
20260904002558 85 0 0.0 0.0 0.00 0.00 0.00 69 1014.8
20260904002059 86 0 0.0 0.0 0.00 0.00 0.00 69 1014.6
20260904001604 86 0 0.0 0.0 0.00 0.00 0.00 68 1014.6
20260904001058 87 0 0.0 0.0 0.00 0.00 0.00 63 1014.7
20260904000558 88 0 0.0 0.0 0.00 0.00 0.00 62 1014.7
20260904000109 89 0 0.0 0.0 0.00 0.00 0.00 61 1014.6
20260903235558 89 0 0.0 1.0 0.00 0.00 0.00 60 1014.7
20260903235057 90 0 0.0 1.0 0.00 0.00 0.00 59 1014.6
20260903234604 90 0 0.0 1.0 0.00 0.00 0.00 59 1014.5
20260903234059 91 0 0.0 1.0 0.00 0.00 0.00 58 1014.4
20260903233559 91 0 0.0 3.0 0.00 0.00 0.00 57 1014.5
20260903233103 92 122 0.0 3.0 0.00 0.00 0.00 56 1014.5
20260903232558 92 0 0.0 3.0 0.00 0.00 0.00 58 1014.4
20260903232055 92 0 0.0 3.0 0.00 0.00 0.00 58 1014.5
20260903231610 92 0 1.0 3.0 0.00 0.00 0.00 54 1014.5
20260903231058 93 127 0.0 3.0 0.00 0.00 0.00 55 1014.4
20260903230600 93 108 0.0 3.0 0.00 0.00 0.00 54 1014.2
20260903230114 94 62 0.0 3.0 0.00 0.00 0.00 57 1014.2
20260903225556 94 93 0.0 2.0 0.00 0.00 0.00 52 1014.2
20260903225055 94 0 0.0 1.0 0.00 0.00 0.00 56 1014.3
20260903224601 95 0 0.0 1.0 0.00 0.00 0.00 56 1014.3
20260903224058 94 0 0.0 4.0 0.00 0.00 0.00 53 1014.2
20260903223601 94 0 0.0 4.0 0.00 0.00 0.00 52 1014.2
20260903223117 94 0 0.0 3.0 0.00 0.00 0.00 53 1014.3
20260903222558 94 0 1.0 4.0 0.00 0.00 0.00 56 1014.3
20260903222058 94 111 1.0 4.0 0.00 0.00 0.00 51 1014.3
20260903221602 95 138 0.0 5.0 0.00 0.00 0.00 53 1014.3
20260903221100 95 154 2.0 5.0 0.00 0.00 0.00 50 1014.3
20260903220558 95 0 0.0 5.0 0.00 0.00 0.00 52 1014.4
20260903220108 94 229 2.0 5.0 0.00 0.00 0.00 55 1014.2
20260903215600 94 151 0.0 5.0 0.00 0.00 0.00 52 1014.3
20260903215058 94 153 1.0 5.0 0.00 0.00 0.00 57 1014.4
20260903214600 94 155 1.0 8.0 0.00 0.00 0.00 58 1014.4
20260903214058 93 115 3.0 8.0 0.00 0.00 0.00 55 1014.5
20260903213557 93 106 3.0 8.0 0.00 0.00 0.00 55 1014.4
20260903213103 93 137 2.0 6.0 0.00 0.00 0.00 58 1014.5
20260903212558 93 75 2.0 6.0 0.00 0.00 0.00 57 1014.5
20260903212058 92 121 1.0 5.0 0.00 0.00 0.00 59 1014.6
20260903211616 92 94 1.0 7.0 0.00 0.00 0.00 58 1014.7
20260903211057 93 105 2.0 9.0 0.00 0.00 0.00 61 1014.7
20260903210559 93 129 4.0 9.0 0.00 0.00 0.00 57 1014.6
20260903205557 92 128 2.0 6.0 0.00 0.00 0.00 62 1014.8
20260903205057 92 0 0.0 2.0 0.00 0.00 0.00 59 1014.9
20260903204604 92 148 0.0 3.0 0.00 0.00 0.00 62 1014.9
20260903204058 92 0 0.0 3.0 0.00 0.00 0.00 59 1015.0
20260903203558 92 0 1.0 4.0 0.00 0.00 0.00 59 1015.1
20260903203107 91 0 1.0 6.0 0.00 0.00 0.00 59 1015.2
20260903202558 92 106 1.0 6.0 0.00 0.00 0.00 59 1015.2
20260903202058 92 124 1.0 5.0 0.00 0.00 0.00 61 1015.3
20260903201606 93 60 2.0 6.0 0.00 0.00 0.00 60 1015.2
20260903201057 93 108 1.0 6.0 0.00 0.00 0.00 59 1015.2
20260903200557 93 105 1.0 5.0 0.00 0.00 0.00 57 1015.3
20260903200110 92 0 0.0 5.0 0.00 0.00 0.00 58 1015.3
20260903195558 92 74 1.0 4.0 0.00 0.00 0.00 58 1015.3
20260903195059 93 0 1.0 5.0 0.00 0.00 0.00 55 1015.3
20260903194601 94 102 0.0 7.0 0.00 0.00 0.00 57 1015.3
20260903194058 94 101 1.0 7.0 0.00 0.00 0.00 55 1015.4
20260903193558 94 115 1.0 6.0 0.00 0.00 0.00 58 1015.5
20260903193107 93 104 0.0 7.0 0.00 0.00 0.00 60 1015.5
20260903192558 92 0 1.0 7.0 0.00 0.00 0.00 61 1015.6
20260903192058 94 98 2.0 7.0 0.00 0.00 0.00 55 1015.7
20260903191607 94 349 0.0 5.0 0.00 0.00 0.00 59 1015.6
20260903191058 93 0 1.0 6.0 0.00 0.00 0.00 61 1015.7
20260903190558 93 89 3.0 6.0 0.00 0.00 0.00 62 1015.9
20260903185558 92 0 1.0 6.0 0.00 0.00 0.00 62 1016.0
20260903185058 93 144 2.0 6.0 0.00 0.00 0.00 61 1016.1
20260903184603 93 0 1.0 4.0 0.00 0.00 0.00 60 1016.2
20260903184058 93 186 2.0 6.0 0.00 0.00 0.00 58 1016.2
20260903183557 92 107 2.0 6.0 0.00 0.00 0.00 59 1016.4
20260903183121 92 130 1.0 4.0 0.00 0.00 0.00 64 1016.4
20260903182558 92 148 1.0 4.0 0.00 0.00 0.00 63 1016.5
20260903182102 91 0 1.0 5.0 0.00 0.00 0.00 61 1016.6
20260903181643 91 0 2.0 5.0 0.00 0.00 0.00 65 1016.6
20260903181058 91 98 0.0 5.0 0.00 0.00 0.00 61 1016.7
20260903180558 91 154 1.0 6.0 0.00 0.00 0.00 62 1016.8
20260903180107 91 0 1.0 6.0 0.00 0.00 0.00 61 1016.9
20260903175557 91 101 1.0 6.0 0.00 0.00 0.00 64 1016.9
20260903175103 91 125 2.0 6.0 0.00 0.00 0.00 63 1016.9
20260903174603 92 0 2.0 10.0 0.00 0.00 0.00 65 1017.0
20260903174059 92 134 4.0 10.0 0.00 0.00 0.00 59 1017.0
20260903173603 93 139 1.0 4.0 0.00 0.00 0.00 58 1017.1
20260903173109 93 151 1.0 3.0 0.00 0.00 0.00 58 1017.1
20260903172558 92 169 1.0 7.0 0.00 0.00 0.00 63 1017.2
20260903172057 92 154 1.0 7.0 0.00 0.00 0.00 62 1017.3
20260903171602 92 98 1.0 10.0 0.00 0.00 0.00 63 1017.3
20260903171058 91 42 1.0 10.0 0.00 0.00 0.00 62 1017.4
20260903170558 91 96 2.0 7.0 0.00 0.00 0.00 62 1017.4
20260903170106 91 117 2.0 7.0 0.00 0.00 0.00 63 1017.5
20260903165557 91 94 1.0 5.0 0.00 0.00 0.00 66 1017.5
20260903165058 91 103 1.0 6.0 0.00 0.00 0.00 67 1017.5
20260903164602 91 59 2.0 6.0 0.00 0.00 0.00 62 1017.5
20260903164059 90 139 1.0 6.0 0.00 0.00 0.00 66 1017.6
20260903163558 90 81 2.0 8.0 0.00 0.00 0.00 66 1017.7
20260903163059 90 109 1.0 8.0 0.00 0.00 0.00 64 1017.7
20260903162558 90 107 2.0 8.0 0.00 0.00 0.00 67 1017.8
20260903162058 90 129 1.0 5.0 0.00 0.00 0.00 65 1017.9
20260903161619 90 148 1.0 7.0 0.00 0.00 0.00 70 1017.9
20260903161059 90 107 2.0 7.0 0.00 0.00 0.00 65 1017.9
20260903160558 90 276 0.0 3.0 0.00 0.00 0.00 68 1017.9
20260903160105 89 33 1.0 4.0 0.00 0.00 0.00 71 1017.9
20260903155559 88 297 2.0 4.0 0.00 0.00 0.00 69 1018.1
20260903155058 89 41 0.0 4.0 0.00 0.00 0.00 69 1017.9
20260903154601 88 96 1.0 5.0 0.00 0.00 0.00 72 1017.9
20260903154059 88 0 1.0 5.0 0.00 0.00 0.00 70 1017.8
20260903153558 88 0 1.0 4.0 0.00 0.00 0.00 71 1017.9
20260903153217 88 0 1.0 9.0 0.00 0.00 0.00 72 1017.8
20260903153111 88 0 1.0 9.0 0.00 0.00 0.00 72 1017.8
20260903152559 87 0 0.0 9.0 0.00 0.00 0.00 73 1018.0
20260903152101 87 86 1.0 4.0 0.00 0.00 0.00 75 1017.9
20260903151606 87 82 0.0 3.0 0.00 0.00 0.00 76 1018.0
20260903151058 87 0 0.0 2.0 0.00 0.00 0.00 75 1017.9
20260903150558 87 0 0.0 2.0 0.00 0.00 0.00 78 1017.9
20260903150101 86 345 0.0 2.0 0.00 0.00 0.00 76 1017.9
20260903145558 86 347 0.0 2.0 0.00 0.00 0.00 77 1017.8
20260903145058 86 0 0.0 2.0 0.00 0.00 0.00 80 1017.9
20260903144607 85 89 0.0 4.0 0.00 0.00 0.00 78 1017.9
20260903144058 85 0 1.0 4.0 0.00 0.00 0.00 81 1017.7
20260903143558 84 102 0.0 4.0 0.00 0.00 0.00 83 1017.8
20260903143104 84 86 0.0 4.0 0.00 0.00 0.00 81 1017.8
20260903142559 84 79 0.0 7.0 0.00 0.00 0.00 80 1017.8
20260903142059 83 0 0.0 7.0 0.00 0.00 0.00 81 1017.8
20260903141602 83 98 1.0 7.0 0.00 0.00 0.00 81 1017.8
20260903141059 83 88 1.0 5.0 0.00 0.00 0.00 80 1017.7
20260903140558 83 99 1.0 5.0 0.00 0.00 0.00 80 1017.8
20260903140104 84 103 0.0 6.0 0.00 0.00 0.00 82 1017.8
20260903135558 83 0 1.0 6.0 0.00 0.00 0.00 86 1017.8
20260903135058 83 0 0.0 2.0 0.00 0.00 0.00 86 1017.8
20260903134609 82 0 0.0 3.0 0.00 0.00 0.00 88 1017.6
20260903134058 81 58 0.0 3.0 0.00 0.00 0.00 90 1017.8
20260903133558 80 0 0.0 2.0 0.00 0.00 0.00 88 1017.8
20260903133109 80 0 0.0 1.0 0.00 0.00 0.00 89 1017.7
20260903132557 79 274 0.0 1.0 0.00 0.00 0.00 89 1017.6
20260903132058 79 0 0.0 1.0 0.00 0.00 0.00 90 1017.5
20260903131606 79 0 0.0 1.0 0.00 0.00 0.00 93 1017.5
20260903131057 78 0 0.0 1.0 0.00 0.00 0.00 91 1017.4
20260903130559 78 0 0.0 0.0 0.00 0.00 0.00 91 1017.4
20260903130105 77 0 0.0 0.0 0.00 0.00 0.00 92 1017.3
20260903125558 77 0 0.0 0.0 0.00 0.00 0.00 93 1017.3
20260903125058 76 0 0.0 0.0 0.00 0.00 0.00 93 1017.3
20260903124606 76 0 0.0 0.0 0.00 0.00 0.00 93 1017.3
20260903124058 76 0 0.0 0.0 0.00 0.00 0.00 94 1017.3
20260903123558 76 0 0.0 0.0 0.00 0.00 0.00 94 1017.3
20260903123104 76 0 0.0 0.0 0.00 0.00 0.00 95 1017.3
20260903122558 76 0 0.0 0.0 0.00 0.00 0.00 95 1017.4
20260903122058 75 0 0.0 0.0 0.00 0.00 0.00 95 1017.3
20260903121604 75 0 0.0 0.0 0.00 0.00 0.00 95 1017.3
20260903121056 75 0 0.0 0.0 0.00 0.00 0.00 96 1017.3
20260903120558 75 0 0.0 0.0 0.00 0.00 0.00 96 1017.3
20260903115555 75 0 0.0 0.0 0.00 0.00 0.00 97 1017.3
20260903115055 75 0 0.0 0.0 0.00 0.00 0.00 97 1017.3
20260903114558 75 0 0.0 0.0 0.00 0.00 0.00 97 1017.2
20260903114055 74 0 0.0 0.0 0.00 0.00 0.00 97 1017.2
20260903113559 74 0 0.0 0.0 0.00 0.00 0.00 97 1017.1
20260903113104 74 0 0.0 0.0 0.00 0.00 0.00 97 1017.1
20260903112556 74 0 0.0 0.0 0.00 0.00 0.00 97 1017.1
20260903112056 74 0 0.0 0.0 0.00 0.00 0.00 97 1017.1
20260903111601 74 0 0.0 0.0 0.00 0.00 0.00 97 1017.1
20260903111058 75 0 0.0 0.0 0.00 0.00 0.00 97 1017.1
20260903110602 75 0 0.0 0.0 0.00 0.00 0.00 97 1017.2
20260903110106 75 0 0.0 0.0 0.00 0.00 0.00 97 1017.1
20260903105602 75 0 0.0 0.0 0.00 0.00 0.00 97 1017.1
20260903105058 75 0 0.0 0.0 0.00 0.00 0.00 97 1017.1
20260903104603 75 0 0.0 0.0 0.00 0.00 0.00 97 1017.1
20260903104055 75 0 0.0 0.0 0.00 0.00 0.00 97 1017.0
20260903103556 75 0 0.0 0.0 0.00 0.00 0.00 97 1017.0
20260903103104 75 0 0.0 0.0 0.00 0.00 0.00 97 1017.0
20260903102556 75 0 0.0 0.0 0.00 0.00 0.00 97 1016.9
20260903102054 75 0 0.0 0.0 0.00 0.00 0.00 97 1016.8
20260903101600 75 0 0.0 0.0 0.00 0.00 0.00 97 1016.8
20260903101058 75 0 0.0 0.0 0.00 0.00 0.00 97 1016.7
20260903100558 75 0 0.0 0.0 0.00 0.00 0.00 97 1016.7
20260903095555 75 0 0.0 0.0 0.00 0.00 0.00 97 1016.7
20260903095058 75 0 0.0 0.0 0.00 0.00 0.00 97 1016.7
20260903094610 75 0 0.0 0.0 0.00 0.00 0.00 97 1016.7
20260903094059 75 0 0.0 0.0 0.00 0.00 0.00 97 1016.7
20260903093559 75 0 0.0 0.0 0.00 0.00 0.00 96 1016.7
20260903093104 75 0 0.0 0.0 0.00 0.00 0.00 96 1016.7
20260903092558 75 0 0.0 0.0 0.00 0.00 0.00 96 1016.6
20260903092059 75 0 0.0 0.0 0.00 0.00 0.00 96 1016.6
20260903091607 75 0 0.0 0.0 0.00 0.00 0.00 95 1016.5
20260903091055 75 0 0.0 0.0 0.00 0.00 0.00 95 1016.6
20260903090558 75 0 0.0 0.0 0.00 0.00 0.00 95 1016.7
20260903090108 75 0 0.0 0.0 0.00 0.00 0.00 95 1016.6
20260903085558 75 0 0.0 0.0 0.00 0.00 0.00 95 1016.6
20260903085057 75 0 0.0 0.0 0.00 0.00 0.00 95 1016.6
20260903084603 76 0 0.0 0.0 0.00 0.00 0.00 95 1016.7
20260903084059 76 0 0.0 0.0 0.00 0.00 0.00 94 1016.6
20260903083558 76 0 0.0 0.0 0.00 0.00 0.00 94 1016.6
20260903083108 76 0 0.0 0.0 0.00 0.00 0.00 94 1016.6
20260903082558 76 0 0.0 0.0 0.00 0.00 0.00 94 1016.6
20260903082055 76 0 0.0 0.0 0.00 0.00 0.00 94 1016.6
20260903081608 76 0 0.0 0.0 0.00 0.00 0.00 94 1016.7
20260903081056 76 0 0.0 0.0 0.00 0.00 0.00 94 1016.7
20260903080555 76 0 0.0 0.0 0.00 0.00 0.00 95 1016.6
20260903080126 76 0 0.0 0.0 0.00 0.00 0.00 95 1016.6
20260903075558 76 0 0.0 0.0 0.00 0.00 0.00 95 1016.6
20260903075055 76 0 0.0 0.0 0.00 0.00 0.00 96 1016.6
20260903074607 76 0 0.0 0.0 0.00 0.00 0.00 95 1016.7
20260903074058 76 0 0.0 0.0 0.00 0.00 0.00 95 1016.8
20260903073556 76 0 0.0 0.0 0.00 0.00 0.00 95 1016.8
20260903073119 76 0 0.0 0.0 0.00 0.00 0.00 95 1016.8
20260903072555 76 0 0.0 0.0 0.00 0.00 0.00 95 1016.8
20260903072055 76 0 0.0 0.0 0.00 0.00 0.00 95 1016.8
20260903071603 76 0 0.0 0.0 0.00 0.00 0.00 94 1016.8
20260903071101 76 0 0.0 0.0 0.00 0.00 0.00 95 1016.8
20260903070602 76 0 0.0 0.0 0.00 0.00 0.00 95 1017.0
20260903070110 76 0 0.0 0.0 0.00 0.00 0.00 94 1017.0
20260903065558 76 0 0.0 0.0 0.00 0.00 0.00 94 1017.2
20260903065057 76 0 0.0 0.0 0.00 0.00 0.00 94 1017.2
20260903064603 77 0 0.0 0.0 0.00 0.00 0.00 94 1017.3
20260903064056 77 0 0.0 0.0 0.00 0.00 0.00 94 1017.3
20260903063556 77 0 0.0 0.0 0.00 0.00 0.00 94 1017.3
20260903063126 77 0 0.0 0.0 0.00 0.00 0.00 94 1017.3